[[{"header":{"parameterUnit":"m.s-1","parameterCategory":1,"la1":30.2991,"la2":30.254,"lo1":-89.0895,"lo2":-89.0444,"dy":0.0017,"dx":0.0017,"nx":28,"ny":28,"refTime":"2025-04-10T03:00:00:Z","depth":0,"parameterNumber":2,"parameterNumberName":"U-component_of_WINDS"},"data":[0,0,0,0,0,0,0,0,0,0,0,0,0,0,0,0,0,0,0,0,0,0,0,0,0,0,0,0,0,0,0,0,0,0,0,0,0,0,0,0,0,0,0,0,0,0,0,0,0,0,0,0,0,0,0,0,0,0,1.5315,1.5316,0,1.5381,1.5381,1.5382,1.5403,1.5403,1.5402,1.5402,1.5471,1.5473,1.5475,0,0,0,0,0,0,0,0,0,0,0,0,0,1.521,1.5212,1.5315,1.5316,1.5317,1.5381,1.5381,1.5382,1.5403,1.5403,1.5402,1.5402,1.547,1.5472,1.5475,0,0,0,0,0,0,0,0,0,0,0,0,0,1.5263,1.5212,1.5315,1.5335,1.5337,1.538,1.5381,1.5383,1.5403,1.5403,1.5402,1.5402,1.5469,1.5472,1.5475,1.5504,0,0,1.5485,1.5486,0,0,0,0,0,0,0,0,1.526,1.5267,1.5331,1.5333,1.5336,1.5383,1.537,1.5423,1.5403,1.5378,1.5402,1.5402,1.5442,1.5447,1.5461,1.5507,1.551,1.5485,1.5487,1.5489,1.5489,0,0,0,0,0,0,0,1.5257,1.5265,1.5341,1.5332,1.5335,1.5341,1.5348,1.538,1.5412,1.538,1.5382,1.5389,1.5443,1.5458,1.5463,1.5511,1.5485,1.5488,1.549,1.5491,1.5586,1.5587,0,0,0,0,0,0,1.5249,1.5261,1.5339,1.5343,1.5296,1.5343,1.5351,1.5369,1.5412,1.5418,1.539,1.539,1.5452,1.5459,1.5465,1.5502,1.5489,1.5492,1.5493,1.5585,1.5586,1.5587,0,0,0,0,0,0,1.5247,1.5256,1.5336,1.5303,1.5313,1.5346,1.5365,1.537,1.5384,1.5419,1.5425,1.5398,1.5452,1.5461,1.5494,1.5505,1.5493,1.5496,1.5585,1.5586,1.5586,1.5576,0,0,0,0,0,0,1.5244,1.5255,1.5266,1.5303,1.5315,1.5364,1.5365,1.5372,1.539,1.5391,1.5428,1.5434,1.5453,1.549,1.5498,1.5509,1.5498,1.5584,1.5585,1.5586,1.5576,1.5576,1.5577,0,0,0,0,0,1.524,1.526,1.5266,1.5275,1.5329,1.5364,1.5371,1.5392,1.539,1.5402,1.5424,1.5433,1.5502,1.5493,1.5502,1.5514,1.5583,1.5585,1.5586,1.5575,1.5576,1.5577,0,0,0,0,0,0,1.5223,1.5265,1.5272,1.5305,1.5331,1.5368,1.5382,1.5392,1.542,1.542,1.5444,1.5453,1.5485,1.5503,1.5492,1.5545,1.5543,1.5547,1.5532,1.5533,1.5534,1.5529,1.5501,0,0,0,0,0,1.5223,1.5248,1.5284,1.5309,1.5322,1.535,1.5366,1.538,1.5408,1.5419,1.5444,1.5471,1.55,1.5517,1.5545,1.5579,1.5588,1.5592,1.5593,1.5593,1.5596,1.5616,1.5618,1.5591,1.5591,1.5591,0,0,1.5224,1.525,1.5264,1.5306,1.5328,1.5354,1.5359,1.5386,1.5405,1.5423,1.5457,1.5476,1.5509,1.5542,1.5559,1.5559,1.5605,1.5595,1.5595,1.5597,1.5617,1.562,1.5622,1.5592,1.5592,1.5592,0,0,1.5238,1.526,1.5283,1.5305,1.5338,1.5357,1.5363,1.5399,1.5412,1.5446,1.5461,1.5485,1.5533,1.5555,1.5573,1.5598,1.5607,1.5606,1.561,1.5629,1.5632,1.5634,1.5643,1.5646,1.5608,1.5608,1.5608,0,1.5234,1.5273,1.5295,1.5321,1.534,1.5357,1.5382,1.5403,1.5443,1.5456,1.5456,1.5517,1.554,1.558,1.5586,1.5599,1.5607,1.5602,1.5629,1.5632,1.5634,1.5643,1.5646,1.5608,1.5608,1.5608,1.5608,0,1.5267,1.5294,1.531,1.5348,1.5369,1.5395,1.5421,1.5439,1.5452,1.5471,1.5506,1.5534,1.5569,1.5579,1.5592,1.5622,1.5621,1.5624,1.5623,1.5636,1.5645,1.5648,1.5608,1.5608,1.5608,1.5608,0,0,1.5271,1.5323,1.5328,1.5346,1.5385,1.5406,1.5433,1.5467,1.5482,1.551,1.5534,1.5575,1.5579,1.5599,1.5614,1.5631,1.565,1.5633,1.5634,1.5636,1.5685,1.5682,1.5685,1.5656,1.5657,1.5658,1.5683,0,1.5291,1.5339,1.536,1.5399,1.5425,1.5442,1.5466,1.5493,1.5512,1.5537,1.5559,1.5587,1.559,1.5603,1.562,1.5643,1.566,1.5642,1.5679,1.568,1.567,1.569,1.5687,1.5709,1.5686,1.5687,1.5687,0,1.5319,1.5347,1.5388,1.5425,1.5437,1.5457,1.549,1.5514,1.5545,1.5558,1.5581,1.5596,1.5626,1.5623,1.5665,1.5652,1.5669,1.5683,1.5684,1.5689,1.5684,1.5695,1.5716,1.5719,1.5693,1.5692,1.5692,0,1.5318,1.5366,1.5398,1.5413,1.5456,1.547,1.5489,1.552,1.5539,1.5568,1.5581,1.5613,1.5631,1.5656,1.568,1.5675,1.572,1.5718,1.5732,1.5731,1.574,1.5739,1.5764,1.5751,1.5751,1.5751,1.5751,0,1.5337,1.5362,1.5398,1.5417,1.5446,1.5471,1.5499,1.5519,1.5546,1.5571,1.5588,1.5611,1.564,1.5667,1.5686,1.5718,1.5726,1.5738,1.5742,1.5736,1.5734,1.5747,1.5746,1.5752,1.5751,1.5751,1.5751,0,1.5341,1.5366,1.5402,1.544,1.545,1.547,1.5503,1.5523,1.5543,1.5574,1.5582,1.5615,1.5647,1.5673,1.5715,1.5728,1.5762,1.5767,1.5751,1.5754,1.5765,1.5764,1.5799,1.5806,1.5788,1.5788,1.5788,0,1.5351,1.5371,1.5412,1.5429,1.5448,1.5475,1.5495,1.5521,1.5541,1.5578,1.5594,1.5627,1.5655,1.5706,1.5734,1.5766,1.5773,1.5783,1.5778,1.5771,1.5773,1.5772,1.5774,1.5783,1.5783,1.5783,1.5783,0,1.5367,1.5379,1.5407,1.5439,1.5462,1.5489,1.5516,1.553,1.556,1.5582,1.5615,1.5637,1.5681,1.5714,1.575,1.577,1.5782,1.5785,1.579,1.5784,1.5774,1.578,1.5753,1.5784,1.5784,1.5784,1.5784,1.5784,1.5375,1.5394,1.5425,1.5456,1.5479,1.5505,1.5525,1.5549,1.5577,1.5614,1.5627,1.5662,1.5694,1.5743,1.5764,1.5791,1.5792,1.5799,1.5801,1.5802,1.5802,1.5769,1.5798,1.5798,1.5798,1.5798,1.5798,0,1.5392,1.5414,1.5441,1.5479,1.5504,1.5513,1.5544,1.5564,1.5594,1.5623,1.565,1.5689,1.5722,1.5752,1.5786,1.5803,1.5809,1.5811,1.581,1.5815,1.5799,1.5791,1.5805,1.5805,1.5805,1.5805,1.5805,1.5805,1.5404,1.5436,1.5452,1.5496,1.5518,1.5551,1.5568,1.5592,1.5615,1.5658,1.5685,1.5705,1.5735,1.5772,1.5802,1.5811,1.5823,1.5823,1.5832,1.5817,1.5816,1.5815,1.5808,1.5825,1.5825,1.5846,1.5846,1.5847]},{"header":{"parameterUnit":"m.s-1","parameterCategory":1,"la1":30.2991,"la2":30.254,"lo1":-89.0895,"lo2":-89.0444,"dy":0.0017,"dx":0.0017,"nx":28,"ny":28,"refTime":"2025-04-10T03:00:00:Z","depth":0,"parameterNumber":3,"parameterNumberName":"V-component_of_WINDS"},"data":[0,0,0,0,0,0,0,0,0,0,0,0,0,0,0,0,0,0,0,0,0,0,0,0,0,0,0,0,0,0,0,0,0,0,0,0,0,0,0,0,0,0,0,0,0,0,0,0,0,0,0,0,0,0,0,0,0,0,-1.8804,-1.8805,0,-1.881,-1.881,-1.881,-1.8827,-1.8827,-1.8828,-1.8828,-1.883,-1.883,-1.883,0,0,0,0,0,0,0,0,0,0,0,0,0,-1.8808,-1.8808,-1.8804,-1.8805,-1.8805,-1.881,-1.881,-1.881,-1.8827,-1.8827,-1.8828,-1.8828,-1.883,-1.883,-1.883,0,0,0,0,0,0,0,0,0,0,0,0,0,-1.8809,-1.8808,-1.8804,-1.8814,-1.8815,-1.881,-1.881,-1.881,-1.8827,-1.8827,-1.8828,-1.8828,-1.883,-1.883,-1.883,-1.8815,0,0,-1.8828,-1.8828,0,0,0,0,0,0,0,0,-1.8809,-1.8809,-1.8812,-1.8813,-1.8814,-1.8819,-1.8812,-1.8812,-1.8827,-1.8822,-1.8828,-1.8829,-1.8826,-1.8826,-1.8825,-1.8816,-1.8816,-1.8828,-1.8828,-1.8828,-1.8828,0,0,0,0,0,0,0,-1.8809,-1.8809,-1.8807,-1.8812,-1.8813,-1.8817,-1.8818,-1.8812,-1.882,-1.8822,-1.8824,-1.8824,-1.8826,-1.8826,-1.8825,-1.8816,-1.8828,-1.8828,-1.8827,-1.8827,-1.8799,-1.8799,0,0,0,0,0,0,-1.8808,-1.8809,-1.8806,-1.8807,-1.8813,-1.8817,-1.8818,-1.8816,-1.8821,-1.8822,-1.8824,-1.8825,-1.8826,-1.8826,-1.8826,-1.8812,-1.8828,-1.8827,-1.8827,-1.88,-1.8799,-1.8798,0,0,0,0,0,0,-1.8808,-1.8807,-1.8806,-1.8808,-1.8808,-1.8816,-1.8815,-1.8816,-1.8816,-1.8822,-1.8823,-1.8822,-1.8827,-1.8826,-1.8819,-1.8812,-1.8827,-1.8827,-1.88,-1.8799,-1.8799,-1.8783,0,0,0,0,0,0,-1.8808,-1.8807,-1.8802,-1.8808,-1.8808,-1.8799,-1.8814,-1.8816,-1.8815,-1.8817,-1.882,-1.8821,-1.8827,-1.882,-1.8819,-1.8812,-1.8826,-1.8801,-1.88,-1.8799,-1.8784,-1.8782,-1.878,0,0,0,0,0,-1.8808,-1.8795,-1.8801,-1.8801,-1.8801,-1.8799,-1.8799,-1.8807,-1.8815,-1.881,-1.8814,-1.8821,-1.8813,-1.8819,-1.8818,-1.8811,-1.8801,-1.88,-1.8799,-1.8785,-1.8782,-1.878,0,0,0,0,0,0,-1.8785,-1.8796,-1.8803,-1.8792,-1.8795,-1.8802,-1.8795,-1.8803,-1.8803,-1.8804,-1.8813,-1.8814,-1.8806,-1.8807,-1.8813,-1.8799,-1.8809,-1.8807,-1.8798,-1.8796,-1.8794,-1.8793,-1.8826,0,0,0,0,0,-1.878,-1.8777,-1.8787,-1.8776,-1.8778,-1.8786,-1.8785,-1.8792,-1.8795,-1.8795,-1.8799,-1.8801,-1.8799,-1.8798,-1.8796,-1.8785,-1.8787,-1.878,-1.8778,-1.8776,-1.8774,-1.8772,-1.8769,-1.8795,-1.8795,-1.8795,0,0,-1.8767,-1.8772,-1.877,-1.8772,-1.8775,-1.8773,-1.8787,-1.8783,-1.8781,-1.8794,-1.8789,-1.8792,-1.8795,-1.8786,-1.8783,-1.8788,-1.8768,-1.8774,-1.8773,-1.8772,-1.877,-1.8768,-1.8766,-1.8794,-1.8794,-1.8794,0,0,-1.8742,-1.8746,-1.8739,-1.8743,-1.8748,-1.8755,-1.8754,-1.8761,-1.8764,-1.8759,-1.877,-1.8769,-1.8764,-1.8767,-1.8768,-1.875,-1.8757,-1.875,-1.8738,-1.8735,-1.8733,-1.8731,-1.8726,-1.8724,-1.8748,-1.8748,-1.8748,0,-1.8725,-1.8723,-1.8734,-1.8731,-1.8733,-1.8747,-1.8741,-1.8744,-1.8748,-1.8749,-1.8755,-1.8753,-1.8756,-1.875,-1.8746,-1.8746,-1.8745,-1.8748,-1.8732,-1.8731,-1.8729,-1.8725,-1.8723,-1.8747,-1.8747,-1.8747,-1.8747,0,-1.8703,-1.8701,-1.8695,-1.8702,-1.8703,-1.8698,-1.8709,-1.8709,-1.8717,-1.8723,-1.872,-1.8724,-1.8726,-1.8725,-1.873,-1.8721,-1.8724,-1.8731,-1.874,-1.8726,-1.8722,-1.872,-1.8746,-1.8746,-1.8747,-1.8747,0,0,-1.8661,-1.8678,-1.8675,-1.868,-1.8689,-1.8688,-1.8685,-1.8689,-1.8689,-1.8693,-1.8691,-1.869,-1.8698,-1.8699,-1.8706,-1.8704,-1.8693,-1.8712,-1.8712,-1.8709,-1.8684,-1.8679,-1.8677,-1.8698,-1.8698,-1.8698,-1.8685,0,-1.8639,-1.8636,-1.8648,-1.8642,-1.8642,-1.8658,-1.8656,-1.8662,-1.8669,-1.867,-1.8678,-1.8678,-1.8687,-1.8689,-1.8687,-1.8694,-1.8688,-1.8695,-1.8697,-1.8697,-1.8696,-1.8675,-1.8668,-1.8655,-1.8683,-1.8683,-1.8682,0,-1.8612,-1.8618,-1.8612,-1.8626,-1.8626,-1.8624,-1.863,-1.8631,-1.8639,-1.8645,-1.8648,-1.8658,-1.8657,-1.8667,-1.8667,-1.8672,-1.8674,-1.8678,-1.8678,-1.8678,-1.8688,-1.8675,-1.8651,-1.865,-1.868,-1.868,-1.868,0,-1.8584,-1.859,-1.8588,-1.8592,-1.8607,-1.8606,-1.8612,-1.8621,-1.8623,-1.8629,-1.8631,-1.8635,-1.8638,-1.8641,-1.8653,-1.8659,-1.8652,-1.8662,-1.8657,-1.8657,-1.8654,-1.8654,-1.8631,-1.8655,-1.8655,-1.8655,-1.8655,0,-1.8559,-1.8555,-1.8577,-1.8575,-1.8573,-1.8588,-1.8585,-1.8593,-1.8601,-1.8602,-1.8616,-1.8617,-1.8632,-1.8634,-1.8643,-1.8643,-1.8643,-1.8648,-1.8651,-1.8647,-1.8647,-1.8648,-1.8649,-1.8654,-1.8654,-1.8654,-1.8654,0,-1.8526,-1.854,-1.854,-1.8556,-1.8561,-1.8558,-1.8572,-1.8572,-1.8582,-1.8583,-1.8584,-1.8599,-1.8604,-1.8616,-1.8622,-1.8628,-1.8626,-1.863,-1.8623,-1.8625,-1.862,-1.862,-1.8597,-1.8595,-1.8619,-1.8619,-1.8619,0,-1.8509,-1.8507,-1.8524,-1.8527,-1.8534,-1.8537,-1.8542,-1.8558,-1.8561,-1.8573,-1.8572,-1.8578,-1.8583,-1.859,-1.8601,-1.8607,-1.8612,-1.8603,-1.8612,-1.861,-1.8613,-1.8613,-1.8614,-1.8601,-1.86,-1.86,-1.86,0,-1.8477,-1.8486,-1.8491,-1.8501,-1.8506,-1.8513,-1.8522,-1.8523,-1.8541,-1.8545,-1.8551,-1.8556,-1.8565,-1.8571,-1.858,-1.8586,-1.8596,-1.8598,-1.8597,-1.8593,-1.859,-1.8593,-1.8619,-1.8597,-1.8598,-1.8598,-1.8598,-1.8598,-1.8452,-1.8453,-1.8467,-1.8474,-1.8482,-1.8491,-1.8493,-1.8505,-1.851,-1.852,-1.853,-1.8535,-1.8547,-1.856,-1.8566,-1.8571,-1.8576,-1.8574,-1.8574,-1.8573,-1.8573,-1.859,-1.8572,-1.8572,-1.8572,-1.8572,-1.8572,0,-1.8423,-1.8434,-1.844,-1.8453,-1.8459,-1.8471,-1.8482,-1.8486,-1.8492,-1.8502,-1.8509,-1.8517,-1.8525,-1.8538,-1.8547,-1.8548,-1.8553,-1.855,-1.855,-1.8552,-1.8567,-1.8567,-1.8546,-1.8546,-1.8546,-1.8546,-1.8546,-1.8546,-1.8408,-1.841,-1.8421,-1.8429,-1.844,-1.8447,-1.8452,-1.8461,-1.847,-1.8479,-1.8486,-1.8496,-1.8508,-1.8519,-1.8527,-1.853,-1.8533,-1.8528,-1.8534,-1.8548,-1.855,-1.8552,-1.8553,-1.8529,-1.8529,-1.8518,-1.8518,-1.8518]}]]